Orbital Elements at Epoch 2459200.5 (2020-Dec-17.0) TDB
Reference: JPL 9 (heliocentric ecliptic J2000)
Element | Value | Uncertainty (1-sigma) | Units |
e | .2011453551242468 | 1.1147e-07 | |
a | 2.536958146277501 | 1.9155e-08 | au |
q | 2.026660799009163 | 2.8795e-07 | au |
i | 13.05865052058834 | 1.0702e-05 | deg |
node | 48.61458233576386 | 4.7037e-05 | deg |
peri | 278.7478060302586 | 5.2148e-05 | deg |
M | 304.2119272320655 | 2.4059e-05 | deg |
tp | 2459429.221630588696 (2021-Aug-02.72163059) | 9.9233e-05 | TDB |
period | 1475.938904619361 4.04 | 1.6716e-05 4.577e-08 | d yr |
n | .243912535182371 | 2.7625e-09 | deg/d |
Q | 3.04725549354584 | 2.3008e-08 | au |
|
| | Orbit Determination Parameters
Additional Information
|